www.pogodaiklimat.ru

Погода и климат >> Архив погоды >> Индия >> Gopalpur


ПОГОДА в Gopalpur

  • Прогноз погоды в Gopalpur
  • Монитор погоды в Gopalpur
  • Климат города

АРХИВ ПОГОДЫ в Gopalpur

Время (UTC), дата Ветер
(напр.,м/с)
 
Видим.   Явления Облачность Т
(С)
Тd
(С)
f
(%)
Тe
(С)
Тes
(С)
Комфортность P
(гПа)
Po
(гПа)
Тmin
(С)
Tmax
(С)
R
(мм)
R24
(мм)
S
(см)
00 18.04 ЮЗ 1 2000 м мгла 5/1 600 м
[Sc Ac trans Ci fib]
+26.6 +24.6 89 +38 +38 очень
душно
1007.8 1008.0
03 18.04 Ю 2 4000 м мгла 1/0 600 м
[Ci fib]
+29.2 +26.1 83 +44 +53 опасность
перегрева
1009.2 1009.0 +25.8
06 18.04 Ю 4 4000 м ясно +31.2 +28.2 84 +52 +66 опасность
перегрева
1008.4 1008.0
09 18.04 Ю 4 4000 м 1/0
[Ci fib]
+32.0 +27.9 79 +52 +61 опасность
перегрева
1005.4 1005.0
12 18.04 Ю 6 4000 м 8/5 600 м
[Cb calv Ci fib]
+29.0 +26.2 85 +44 +44 опасность
перегрева
1004.6 1005.0 +34.0
15 18.04 Ю 5 4000 м 8/5 600 м
[Sc diur, vesp Ci fib]
+28.6 +25.5 83 +42 +42 опасность
перегрева
1006.5 1007.0
18 18.04 Ю 4 4000 м мгла 6/4 600 м
[Sc diur, vesp Ci fib]
+28.0 +25.7 87 +41 +41 опасность
перегрева
1006.4 1006.0
21 18.04 Ю 3 2000 м мгла 6/4 600 м
[Sc diur, vesp Ci fib]
+27.4 +25.4 89 +40 +40 очень
душно
1005.5 1006.0
00 19.04 штиль 0 2000 м мгла 4/1 600 м
[Sc Ci fib]
+27.2 +25.5 90 +40 +40 очень
душно
1005.3 1005.0
03 19.04 штиль 0 4000 м мгла 4/1 600 м
[Sc Ci fib]
+29.8 +25.9 80 +45 +56 опасность
перегрева
1007.5 1008.0 +26.3
06 19.04 Ю 2 4000 м 3/0
[Ci fib]
+31.0 +25.4 72 +45 +65 опасность
перегрева
1007.0 1007.0
09 19.04 Ю 6 4000 м 1/1 750 м
[Cu hum]
+31.8 +28.0 80 +52 +56 опасность
перегрева
1003.8 1004.0
12 19.04 Ю 7 4000 м 6/4 600 м
[Cb calv Ac trans]
+29.2 +27.8 92 +48 +48 опасность
перегрева
1003.1 1003.0 +32.6
15 19.04 Ю 7 4000 м 4/1 600 м
[Sc Ci fib]
+28.6 +27.8 95 +47 +47 опасность
перегрева
1004.8 1005.0
18 19.04 Ю 6 2000 м мгла 4/1 600 м
[Sc Ci fib]
+28.0 +27.7 98 +45 +45 опасность
перегрева
1005.4 1005.0
21 19.04 ЮЗ 4 2000 м мгла 4/0
[Ci fib]
+27.6 +27.3 98 +44 +44 опасность
перегрева
1004.5 1005.0
00 20.04 ЮЗ 5 2000 м мгла 1/0
[Ci fib]
+27.6 +27.3 98 +44 +44 опасность
перегрева
1004.7 1005.0
03 20.04 Ю 6 2000 м мгла ясно +29.0 +27.1 90 +46 +50 опасность
перегрева
1006.8 1007.0 +26.8
06 20.04 Ю 6 4000 м ясно +30.6 +27.0 81 +48 +56 опасность
перегрева
1006.8 1007.0
09 20.04 Ю 7 4000 м 1/1 750 м
[Cu hum]
+30.4 +27.7 86 +50 +53 опасность
перегрева
1004.2 1004.0
12 20.04 СЗ 2 4000 м 9/5 540 м
[Cb calv Ac trans Ci fib]
+29.2 +22.4 67 +38 +38 очень
душно
1006.1 1006.0 +31.8
15 20.04 ЮЗ 2 4000 м 5/3 600 м
[Sc Ac trans Ci fib]
+29.2 +22.4 67 +38 +38 очень
душно
1007.0 1007.0
18 20.04 штиль 0 4000 м 6/3 600 м
[Sc Ac trans Ci fib]
+28.0 +23.0 74 +37 +37 очень
душно
1007.3 1007.0
21 20.04 штиль 0 4000 м 6/3 600 м
[Sc Ac trans Ci fib]
+27.0 +23.5 81 +37 +37 очень
душно
1006.3 1006.0
00 21.04 ЮЗ 2 4000 м 5/3 600 м
[Sc Ci fib]
+27.0 +24.1 84 +37 +37 очень
душно
1004.9 1005.0
03 21.04 Ю 3 4000 м мгла 3/0
[Ci fib]
+29.2 +26.4 85 +45 +53 опасность
перегрева
1007.2 1007.0 +26.6
06 21.04 Ю 4 4000 м 1/0
[Ci fib]
+30.6 +27.9 86 +51 +65 опасность
перегрева
1006.4 1006.0
09 21.04 Ю 6 4000 м 1/0
[Ci fib]
+30.6 +27.9 86 +51 +56 опасность
перегрева
1003.9 1004.0
12 21.04 Ю 6 4000 м 1/0
[Ci fib]
+29.2 +28.1 94 +49 +49 опасность
перегрева
1003.0 1003.0 +32.0
15 21.04 Ю 7 4000 м мгла ясно +27.8 +26.9 95 +44 +44 опасность
перегрева
1004.9 1005.0
18 21.04 Ю 5 2000 м мгла ясно +27.2 +26.6 97 +42 +42 опасность
перегрева
1005.3 1005.0
21 21.04 Ю 3 2000 м мгла 3/0
[Ac trans Ci fib]
+26.8 +26.0 95 +40 +40 очень
душно
1004.1 1004.0
00 22.04 Ю 6 2000 м мгла 3/0
[Ac trans Ci fib]
+27.0 +26.4 97 +41 +41 опасность
перегрева
1005.2 1005.0
03 22.04 Ю 6 2000 м мгла ясно +28.6 +26.9 91 +45 +49 опасность
перегрева
1007.5 1008.0 +26.3
06 22.04 Ю 6 4000 м ясно +30.2 +26.9 83 +47 +56 опасность
перегрева
1007.2 1007.0
09 22.04 Ю 5 4000 м 4/3 600 м
[Sc Ci fib]
+30.4 +27.1 83 +48 +53 опасность
перегрева
1004.6 1005.0
12 22.04 Ю 5 4000 м 5/4 600 м
[Sc diur, vesp Ci fib]
+29.0 +27.6 92 +47 +47 опасность
перегрева
1003.8 1004.0 +32.0
15 22.04 Ю 5 4000 м 8/4 600 м
[Sc Ac trans Ci fib]
+28.0 +26.6 92 +43 +43 опасность
перегрева
1006.1 1006.0
18 22.04 Ю 4 4000 м мгла 9/4 600 м
[Sc Ac trans Ci fib]
+27.6 +26.5 94 +42 +42 опасность
перегрева
1007.1 1007.0
21 22.04 Ю 3 2000 м мгла 9/4 600 м
[Sc Ac trans Ci fib]
+27.4 +26.3 94 +42 +42 опасность
перегрева
1006.1 1006.0
00 23.04 Ю 3 2000 м мгла 9/4 600 м
[Sc Ac trans Ci fib]
+27.0 +26.2 95 +41 +41 опасность
перегрева
1006.3 1006.0
03 23.04 Ю 2 4000 м мгла 9/4 600 м
[Sc Ac trans Ci fib]
+28.0 +26.6 92 +43 +47 опасность
перегрева
1008.8 1009.0 +26.3
06 23.04 ЮЗ 5 4000 м 1/0
[Ci fib]
+30.0 +27.2 85 +48 +59 опасность
перегрева
1007.8 1008.0
09 23.04 Ю 6 4000 м 4/1 750 м
[Cu hum Ac trans Ci fib]
+30.0 +27.2 85 +48 +52 опасность
перегрева
1005.1 1005.0
12 23.04 Ю 4 4000 м 5/1 750 м
[Cu hum Ac trans Ci fib]
+28.6 +27.2 92 +45 +46 опасность
перегрева
1004.2 1004.0 +31.3
15 23.04 Ю 4 4000 м 5/1 600 м
[Sc Ac trans Ci fib]
+27.6 +27.3 98 +44 +44 опасность
перегрева
1007.1 1007.0
18 23.04 штиль 0 2000 м мгла 8/5 540 м
[Sc Ci fib]
+28.0 +27.7 98 +45 +45 опасность
перегрева
1008.0 1008.0
21 23.04 С 2 2000 м гроза, ливневой дождь 9/6 500 м
[Cb cap Ci fib]
+23.0 +22.7 98 +32 +32 очень
душно
1007.4 1007.0 22
00 24.04 штиль 0 2000 м мгла 8/4 540 м
[Sc Ci fib]
+24.2 +23.9 98 +33 +33 очень
душно
1008.5 1009.0 22
03 24.04 Ю 1 2000 м мгла 5/0
[Ac trans Ci fib]
+26.2 +24.2 89 +36 +46 очень
душно
1010.2 1010.0 +21.7 22
06 24.04 Ю 3 4000 м 3/0
[Ci fib]
+28.8 +26.3 86 +44 +62 опасность
перегрева
1009.0 1009.0
09 24.04 Ю 3 4000 м мгла 10/5 600 м
[Sc diur, vesp As trans]
+28.4 +26.7 91 +44 +46 опасность
перегрева
1006.4 1006.0
12 24.04 штиль 0 4000 м мгла 9/5 600 м
[Sc diur, vesp Ac trans Ci fib]
+30.4 +26.2 78 +46 +46 опасность
перегрева
1005.9 1006.0 +31.0
15 24.04 Ю 1 4000 м мгла 9/4 600 м
[Sc diur, vesp Ac trans Ci fib]
+29.4 +26.0 82 +44 +44 опасность
перегрева
1007.0 1007.0
18 24.04 Ю 1 2000 м мгла 6/3 600 м
[Sc Ac trans Ci fib]
+27.4 +25.1 87 +39 +39 очень
душно
1006.9 1007.0

 

Местоположение метеостанции Gopalpur (Orissa, Индия): широта 19.27 долгота 84.88 высота над уровнем моря 17 м.

В архиве по умолчанию представлена погода в Gopalpur за последнюю неделю. Архивные данные за месяц целиком и за предыдущие месяцы, начиная с января 2011 года, Вы можете получить, выбрав интересующий диапазон дат из раскрывающегося списка и нажав кнопку "Ввод!".


*Определитесь, кто Вы:
робот инопланетянин человек

Внимание! Время в таблицах - всемирное. Для получения местного времени необходимо прибавить поправку, которая в Gopalpur равна 5.5 ч.

Смотрите также архив погоды в соседних городах и на ближайших метеорологических станциях:

Погода в Puri (Orissa, Индия) (115 км)
Погода в Kalingapatam (Andhra Pradesh, Индия) (131 км)
Погода в Bhubaneswar (Orissa, Индия) (148 км)
Погода в Phulbani (Orissa, Индия) (149 км)
Погода в Cuttack (Orissa, Индия) (173 км)
Погода в Angul (Orissa, Индия) (175 км)
Погода в Bhawanipatna (Orissa, Индия) (192 км)
Погода в Titlagarh (Orissa, Индия) (201 км)
Погода в Paradip Port (Orissa, Индия) (220 км)
Погода в Koraput (Orissa, Индия) (233 км)

Пояснения к столбцам:

Ветер - указаны скорость ветра в м/с - средняя за 10 мин, порывы в срок и между сроками (в фигурных скобках) и направление, откуда дует ветер: С - северный, СВ - северо-восточный, В - восточный, ЮВ - юго-восточный, Ю - южный, ЮЗ - юго-западный, З - западный, СЗ - северо-западный.
Видимость - горизонтальная дальность видимости в метрах или километрах. При видимости от 1 до 10 км при отсутствии осадков обычно наблюдается дымка, при ухудшении видимости до 1 км и менее - туман. В сухую погоду видимость может ухудшаться дымом, пылью или мглою.
Явления - указаны атмосферные явления, наблюдавшиеся в срок или в последний час перед сроком; фигурными скобками обозначены явления, наблюдавшиеся между сроками (за 1-3 часа до срока); квадратными скобками обозначены град или гололедные отложения с указанием их диаметра в мм.
Облачность - указаны через наклонную черту общая и нижняя облачность в баллах и высота нижней границы облаков в метрах; квадратными скобками обозначены формы облаков: Ci - перистые, Cs - перисто-слоистые, Cc - перисто-кучевые, Ac - высококучевые, As - высокослоистые, Sc - слоисто-кучевые, Ns - слоисто-дождевые, Cu - кучевые, Cb - кучево-дождевые. Подробнее классификацию облаков см. в Атласе облаков (PDF).
T - Температура воздуха - температура, измеренная на высоте 2 м над землей.
Td - Температура точки росы - температура, при понижении до которой содержащийся в воздухе водяной пар достигнет насыщения.
f - Относительная влажность воздуха - влажноcть воздуха, измеренная на высоте 2 м над землей.
Te - Эффективная температура - температура, которую ощущает одетый по сезону человек в тени. Характеристика душности погоды. При расчете учитывается влияние влажности воздуха и скорости ветра на теплоощущения человека.
Tes - Эффективная температура на солнце - температура, которую ощущает человек, с поправкой на солнечный нагрев. Характеристика знойности погоды. Зависит от высоты солнца над горизонтом, облачности и скорости ветра. Ночью, в пасмурную погоду, а также при ветре 12 м/с и более поправка равна нулю.
P - Атмосферное давление - приведенное к уровню моря атмосферное давление.
Po - Атмосферное давление - измеренное на уровне метеостанции атмосферное давление.
Tmin - Минимальная температура - минимум температуры воздуха на высоте 2 м над землей.
Tmax - Максимальная температура - максимум температуры воздуха на высоте 2 м над землей.
R - Количество осадков - Количество выпавших осадков за период времени, мм. При наведении курсора мыши на число - период времени, за который выпало указанное количество осадков.
R24 - Количество осадков - Количество выпавших осадков за 24 часа, мм.
S - Снежный покров - Высота снежного покрова, см. При наведении курсора мыши на число - состояние снежного покрова и степень покрытия местности в баллах.